DW6826 Weather Reports


Display with metric or nautical units.
time (UTC)temp
F
wind
direction
speed
MPH
gust
MPH
rain 1hr
in
rain 24hr
in
rain mn
in
humidity
%
barometer
mb
20260506211413 80 291 2.0 4.0 0.00 0.00 0.00 64 1013.9
20260506210838 80 323 1.0 7.0 0.00 0.00 0.00 64 1014.0
20260506210351 80 256 1.0 7.0 0.00 0.00 0.00 65 1013.9
20260506205847 80 305 2.0 6.0 0.00 0.00 0.00 63 1013.9
20260506205412 80 301 2.0 6.0 0.00 0.00 0.00 63 1013.8
20260506204825 80 316 2.0 5.0 0.00 0.00 0.00 64 1013.9
20260506204327 80 284 2.0 7.0 0.00 0.00 0.00 64 1013.9
20260506203853 80 314 2.0 7.0 0.00 0.00 0.00 63 1014.0
20260506203357 80 265 2.0 7.0 0.00 0.00 0.00 62 1014.2
20260506202908 81 144 2.0 4.0 0.00 0.00 0.00 64 1014.3
20260506202412 81 320 2.0 4.0 0.00 0.00 0.00 63 1014.3
20260506201913 81 72 2.0 5.0 0.00 0.00 0.00 63 1014.3
20260506201412 81 323 1.0 5.0 0.00 0.00 0.00 63 1014.4
20260506200842 81 302 1.0 4.0 0.00 0.00 0.00 63 1014.4
20260506200347 81 313 1.0 4.0 0.00 0.00 0.00 63 1014.5
20260506195907 82 312 2.0 4.0 0.00 0.00 0.00 62 1014.5
20260506195335 82 275 1.0 7.0 0.00 0.00 0.00 63 1014.6
20260506194859 82 325 2.0 4.0 0.00 0.00 0.00 62 1014.6
20260506194428 82 160 1.0 4.0 0.00 0.00 0.00 62 1014.7
20260506193824 82 325 1.0 5.0 0.00 0.00 0.00 61 1014.8
20260506193326 83 251 1.0 4.0 0.00 0.00 0.00 62 1014.7
20260506192828 83 282 2.0 4.0 0.00 0.00 0.00 62 1014.8
20260506192336 83 255 1.0 3.0 0.00 0.00 0.00 62 1014.7
20260506191839 83 239 1.0 6.0 0.00 0.00 0.00 60 1014.7
20260506191348 83 227 1.0 6.0 0.00 0.00 0.00 62 1014.8
20260506190853 83 257 1.0 3.0 0.00 0.00 0.00 62 1014.9
20260506190356 83 292 2.0 3.0 0.00 0.00 0.00 62 1015.0
20260506185858 83 305 1.0 5.0 0.00 0.00 0.00 62 1015.1
20260506185425 83 282 2.0 5.0 0.00 0.00 0.00 62 1015.2
20260506184828 83 255 1.0 3.0 0.00 0.00 0.00 62 1015.3
20260506184330 83 344 1.0 4.0 0.00 0.00 0.00 63 1015.4
20260506183833 83 319 1.0 4.0 0.00 0.00 0.00 64 1015.3
20260506183337 83 262 0.0 6.0 0.00 0.00 0.00 63 1015.8
20260506182843 82 251 2.0 6.0 0.00 0.00 0.00 64 1015.9
20260506182350 82 259 1.0 5.0 0.00 0.00 0.00 64 1015.8
20260506181917 82 272 1.0 5.0 0.00 0.00 0.00 65 1015.9
20260506181339 82 320 1.0 5.0 0.00 0.00 0.00 64 1015.8
20260506180348 82 312 1.0 3.0 0.00 0.00 0.00 67 1015.9
20260506175850 82 320 1.0 3.0 0.00 0.00 0.00 67 1015.8
20260506175355 82 315 1.0 5.0 0.00 0.00 0.00 67 1015.9
20260506174858 82 276 1.0 5.0 0.00 0.00 0.00 65 1016.0
20260506174410 82 269 1.0 4.0 0.00 0.00 0.00 67 1016.1
20260506173829 81 256 1.0 4.0 0.00 0.00 0.00 67 1016.0
20260506173354 81 267 0.0 4.0 0.00 0.00 0.00 67 1016.3
20260506172823 81 316 2.0 4.0 0.00 0.00 0.00 65 1016.3
20260506172345 81 305 1.0 3.0 0.00 0.00 0.00 65 1016.1
20260506171917 82 319 2.0 3.0 0.00 0.00 0.00 65 1016.1
20260506171336 82 325 1.0 3.0 0.00 0.00 0.00 64 1016.3
20260506170905 82 309 1.0 4.0 0.00 0.00 0.00 63 1016.2
20260506170427 82 324 1.0 4.0 0.00 0.00 0.00 63 1016.4
20260506165822 82 324 1.0 3.0 0.00 0.00 0.00 64 1016.4
20260506165439 82 249 1.0 3.0 0.00 0.00 0.00 66 1016.3
20260506164839 81 284 1.0 3.0 0.00 0.00 0.00 66 1016.3
20260506163849 81 258 1.0 3.0 0.00 0.00 0.00 67 1016.3
20260506163350 81 316 1.0 5.0 0.00 0.00 0.00 66 1016.3
20260506162923 81 322 2.0 5.0 0.00 0.00 0.00 66 1016.3
20260506162342 81 304 1.0 4.0 0.00 0.00 0.00 66 1016.3
20260506161914 81 326 1.0 3.0 0.00 0.00 0.00 67 1016.4
20260506161415 80 301 2.0 4.0 0.00 0.00 0.00 67 1016.5
20260506160824 80 320 2.0 4.0 0.00 0.00 0.00 66 1016.6
20260506160432 80 298 1.0 3.0 0.00 0.00 0.00 67 1016.7
20260506155912 80 308 1.0 3.0 0.00 0.00 0.00 67 1016.7
20260506155416 80 323 1.0 4.0 0.00 0.00 0.00 67 1016.7
20260506154844 80 315 1.0 4.0 0.00 0.00 0.00 65 1016.7
20260506153832 80 326 1.0 4.0 0.00 0.00 0.00 65 1016.8
20260506153356 80 319 1.0 3.0 0.00 0.00 0.00 65 1016.7
20260506152906 80 225 0.0 5.0 0.00 0.00 0.00 64 1016.7
20260506152406 80 314 2.0 5.0 0.00 0.00 0.00 63 1016.7
20260506151827 81 304 1.0 4.0 0.00 0.00 0.00 63 1016.8
20260506151356 81 308 1.0 2.0 0.00 0.00 0.00 64 1016.8
20260506150917 80 281 1.0 4.0 0.00 0.00 0.00 64 1016.7
20260506150344 80 327 2.0 5.0 0.00 0.00 0.00 62 1016.7
20260506145905 80 250 1.0 3.0 0.00 0.00 0.00 62 1016.7
20260506145334 80 308 1.0 4.0 0.00 0.00 0.00 62 1016.6
20260506144858 80 325 2.0 5.0 0.00 0.00 0.00 60 1016.5
20260506144324 79 297 2.0 5.0 0.00 0.00 0.00 60 1016.4
20260506143846 79 324 1.0 7.0 0.00 0.00 0.00 58 1016.4
20260506143347 78 321 2.0 6.0 0.00 0.00 0.00 60 1016.3
20260506142918 79 320 3.0 6.0 0.00 0.00 0.00 59 1016.2
20260506142336 79 321 2.0 5.0 0.00 0.00 0.00 61 1016.2
20260506141909 78 316 1.0 4.0 0.00 0.00 0.00 63 1016.3
20260506141327 78 291 2.0 4.0 0.00 0.00 0.00 62 1016.4
20260506140859 78 325 2.0 4.0 0.00 0.00 0.00 63 1016.5
20260506140401 79 321 1.0 3.0 0.00 0.00 0.00 63 1016.6
20260506135909 79 272 1.0 4.0 0.00 0.00 0.00 64 1016.4
20260506135331 78 52 1.0 3.0 0.00 0.00 0.00 64 1016.4
20260506134938 78 242 0.0 5.0 0.00 0.00 0.00 66 1016.2
20260506134344 78 265 1.0 5.0 0.00 0.00 0.00 65 1016.2
20260506133905 78 314 1.0 5.0 0.00 0.00 0.00 65 1016.3
20260506133416 77 293 1.0 5.0 0.00 0.00 0.00 66 1016.2
20260506132916 77 314 1.0 5.0 0.00 0.00 0.00 67 1016.2
20260506132346 76 307 1.0 5.0 0.00 0.00 0.00 69 1016.4
20260506131346 76 320 1.0 3.0 0.00 0.00 0.00 70 1016.4
20260506130918 76 335 1.0 3.0 0.00 0.00 0.00 71 1016.3
20260506130337 76 313 1.0 3.0 0.00 0.00 0.00 72 1016.2
20260506125345 75 322 1.0 3.0 0.00 0.00 0.00 75 1016.0
20260506124858 74 4 1.0 3.0 0.00 0.00 0.00 76 1015.9
20260506124401 74 208 1.0 2.0 0.00 0.00 0.00 77 1016.0
20260506123933 73 320 1.0 2.0 0.00 0.00 0.00 79 1015.9
20260506123435 72 295 1.0 2.0 0.00 0.00 0.00 81 1015.7
20260506122842 71 339 0.0 3.0 0.00 0.00 0.00 84 1015.8
20260506122406 71 327 0.0 3.0 0.00 0.00 0.00 85 1015.8
20260506121827 70 327 1.0 3.0 0.00 0.00 0.00 88 1015.8
20260506121359 69 327 1.0 3.0 0.00 0.00 0.00 89 1015.8
20260506120849 68 4 1.0 2.0 0.00 0.00 0.00 91 1015.9
20260506120410 67 70 0.0 1.0 0.00 0.00 0.00 93 1015.9
20260506115831 66 74 0.0 1.0 0.00 0.00 0.00 95 1015.9
20260506115404 65 74 0.0 1.0 0.00 0.00 0.00 96 1015.9
20260506114906 64 74 1.0 1.0 0.00 0.00 0.00 96 1015.8
20260506114357 63 74 0.0 0.0 0.00 0.00 0.00 97 1015.7
20260506113920 63 74 0.0 0.0 0.00 0.00 0.00 96 1015.6
20260506113431 62 74 0.0 0.0 0.00 0.00 0.00 96 1015.6
20260506112826 62 74 0.0 0.0 0.00 0.00 0.00 95 1015.7
20260506112347 61 74 0.0 0.0 0.00 0.00 0.00 94 1015.4
20260506111858 61 74 0.0 0.0 0.00 0.00 0.00 94 1015.4
20260506111402 61 74 0.0 0.0 0.00 0.00 0.00 94 1015.4
20260506110344 61 74 0.0 0.0 0.00 0.00 0.00 94 1015.4
20260506105348 61 74 0.0 0.0 0.00 0.00 0.00 94 1015.4
20260506104910 61 74 0.0 0.0 0.00 0.00 0.00 94 1015.4
20260506104418 61 74 0.0 0.0 0.00 0.00 0.00 94 1015.4
20260506103938 61 74 0.0 0.0 0.00 0.00 0.00 94 1015.2
20260506103428 61 74 0.0 0.0 0.00 0.00 0.00 94 1015.1
20260506102926 61 74 0.0 0.0 0.00 0.00 0.00 94 1015.1
20260506102409 61 74 0.0 0.0 0.00 0.00 0.00 93 1015.2
20260506101914 61 74 0.0 0.0 0.00 0.00 0.00 93 1015.1
20260506101340 61 74 0.0 0.0 0.00 0.00 0.00 93 1015.1
20260506100842 61 74 0.0 0.0 0.00 0.00 0.00 93 1015.1
20260506100348 61 74 0.0 0.0 0.00 0.00 0.00 94 1015.2
20260506095917 61 74 0.0 0.0 0.00 0.00 0.00 93 1015.2
20260506095337 61 74 0.0 0.0 0.00 0.00 0.00 93 1015.1
20260506094343 61 74 0.0 0.0 0.00 0.00 0.00 93 1015.1
20260506093354 61 74 0.0 0.0 0.00 0.00 0.00 92 1015.1
20260506092914 61 74 0.0 0.0 0.00 0.00 0.00 92 1015.2
20260506092333 61 74 0.0 0.0 0.00 0.00 0.00 93 1015.1
20260506091833 61 74 0.0 0.0 0.00 0.00 0.00 92 1015.1
20260506091441 61 74 0.0 0.0 0.00 0.00 0.00 92 1015.2
20260506090839 61 74 0.0 0.0 0.00 0.00 0.00 92 1015.2
20260506085844 61 74 0.0 0.0 0.00 0.00 0.00 92 1015.2
20260506085414 61 74 0.0 0.0 0.00 0.00 0.00 92 1015.2
20260506084833 61 74 0.0 0.0 0.00 0.00 0.00 92 1015.2
20260506084405 61 74 0.0 0.0 0.00 0.00 0.00 92 1015.3
20260506083823 61 74 0.0 0.0 0.00 0.00 0.00 92 1015.4
20260506083344 61 74 0.0 0.0 0.00 0.00 0.00 92 1015.4
20260506082855 61 74 0.0 0.0 0.00 0.00 0.00 92 1015.3
20260506082419 61 74 0.0 0.0 0.00 0.00 0.00 92 1015.4
20260506081848 61 74 0.0 0.0 0.00 0.00 0.00 92 1015.4
20260506081350 61 74 0.0 0.0 0.00 0.00 0.00 92 1015.3
20260506080921 61 74 0.0 0.0 0.00 0.00 0.00 92 1015.2
20260506080341 61 74 0.0 0.0 0.00 0.00 0.00 92 1015.3
20260506073414 61 74 0.0 0.0 0.00 0.00 0.00 92 1015.1
20260506072833 61 74 0.0 0.0 0.00 0.00 0.00 91 1015.1
20260506071841 61 74 0.0 0.0 0.00 0.00 0.00 91 1015.2
20260506070849 61 74 0.0 0.0 0.00 0.00 0.00 91 1015.1
20260506070415 61 74 0.0 0.0 0.00 0.00 0.00 91 1015.1
20260506062414 61 74 0.0 0.0 0.00 0.00 0.00 89 1015.7
20260506061848 61 74 0.0 0.0 0.00 0.00 0.00 89 1015.6
20260506061410 61 74 0.0 0.0 0.00 0.00 0.00 90 1015.4
20260506060940 61 74 0.0 0.0 0.00 0.00 0.00 89 1015.5
20260506060342 61 74 0.0 0.0 0.00 0.00 0.00 89 1015.6
20260506051332 62 74 0.0 0.0 0.00 0.00 0.00 85 1016.1
20260506050837 62 74 0.0 0.0 0.00 0.00 0.00 85 1016.2
20260506050323 62 74 0.0 0.0 0.00 0.00 0.00 84 1016.2
20260506044825 63 74 0.0 0.0 0.00 0.00 0.00 84 1016.3
20260506044329 63 74 0.0 0.0 0.00 0.00 0.00 84 1016.4
20260506043830 63 74 0.0 0.0 0.00 0.00 0.00 84 1016.4
20260506043328 63 74 0.0 0.0 0.00 0.00 0.00 84 1016.5
20260506042832 63 74 0.0 0.0 0.00 0.00 0.00 83 1016.3
20260506042338 63 74 0.0 0.0 0.00 0.00 0.00 83 1016.6
20260506041845 63 74 0.0 0.0 0.00 0.00 0.00 83 1016.6
20260506041350 63 74 0.0 0.0 0.00 0.00 0.00 83 1016.5
20260506040825 63 74 0.0 0.0 0.00 0.00 0.00 82 1016.4
20260506040331 63 74 0.0 0.0 0.00 0.00 0.00 82 1016.4
20260506035926 63 74 0.0 0.0 0.00 0.00 0.00 81 1016.5
20260506035323 64 74 0.0 0.0 0.00 0.00 0.00 81 1016.5
20260506034857 64 74 0.0 0.0 0.00 0.00 0.00 81 1016.3
20260506034356 64 74 0.0 0.0 0.00 0.00 0.00 81 1016.3
20260506033900 64 74 0.0 0.0 0.00 0.00 0.00 80 1016.2
20260506033412 64 74 0.0 0.0 0.00 0.00 0.00 80 1016.2
20260506032915 64 74 0.0 0.0 0.00 0.00 0.00 79 1016.1
20260506032419 64 74 0.0 0.0 0.00 0.00 0.00 78 1016.2
20260506031840 64 74 0.0 0.0 0.00 0.00 0.00 78 1016.3
20260506031414 64 74 0.0 0.0 0.00 0.00 0.00 78 1016.2
20260506030830 64 74 0.0 0.0 0.00 0.00 0.00 78 1016.2
20260506030403 65 74 0.0 0.0 0.00 0.00 0.00 77 1016.3
20260506025924 65 74 0.0 1.0 0.00 0.00 0.00 76 1016.4
20260506025323 65 74 0.0 1.0 0.00 0.00 0.00 76 1016.3
20260506024854 65 74 0.0 1.0 0.00 0.00 0.00 76 1016.4
20260506024416 65 74 0.0 3.0 0.00 0.00 0.00 75 1016.5
20260506023847 65 152 0.0 0.0 0.00 0.00 0.00 75 1016.5
20260506023349 65 152 0.0 0.0 0.00 0.00 0.00 75 1016.6
20260506022919 65 152 0.0 0.0 0.00 0.00 0.00 74 1016.6
20260506022422 65 152 0.0 1.0 0.00 0.00 0.00 74 1016.6
20260506021915 66 152 0.0 2.0 0.00 0.00 0.00 74 1016.6
20260506021434 66 175 0.0 2.0 0.00 0.00 0.00 74 1016.6
20260506020832 66 185 0.0 0.0 0.00 0.00 0.00 74 1016.5
20260506020344 66 185 0.0 1.0 0.00 0.00 0.00 73 1016.5
20260506015844 66 185 0.0 1.0 0.00 0.00 0.00 73 1016.5
20260506014935 66 181 0.0 2.0 0.00 0.00 0.00 74 1016.4
20260506014333 67 81 0.0 1.0 0.00 0.00 0.00 74 1016.2
20260506013856 67 81 0.0 1.0 0.00 0.00 0.00 73 1016.0
20260506012844 67 81 0.0 1.0 0.00 0.00 0.00 73 1016.3
20260506012346 67 81 0.0 1.0 0.00 0.00 0.00 73 1016.2
20260506011918 67 81 0.0 2.0 0.00 0.00 0.00 72 1016.1
20260506011421 68 75 0.0 2.0 0.00 0.00 0.00 72 1016.2
20260506010902 68 112 0.0 0.0 0.00 0.00 0.00 72 1016.5
20260506010406 68 112 0.0 0.0 0.00 0.00 0.00 72 1016.4
20260506005917 68 112 0.0 2.0 0.00 0.00 0.00 72 1016.1
20260506005420 68 112 0.0 2.0 0.00 0.00 0.00 71 1015.9
20260506004902 69 151 0.0 2.0 0.00 0.00 0.00 71 1015.8
20260506004404 69 85 0.0 2.0 0.00 0.00 0.00 70 1015.8
20260506003907 69 85 0.0 2.0 0.00 0.00 0.00 70 1016.0
20260506003335 69 191 0.0 1.0 0.00 0.00 0.00 69 1016.1
20260506002835 70 172 0.0 3.0 0.00 0.00 0.00 68 1016.0
20260506001849 70 125 0.0 2.0 0.00 0.00 0.00 67 1016.1
20260506001412 70 94 0.0 7.0 0.00 0.00 0.00 67 1016.3
20260506000842 70 321 1.0 7.0 0.00 0.00 0.00 66 1016.1
20260506000408 70 133 0.0 2.0 0.00 0.00 0.00 66 1016.1
20260505235936 71 105 0.0 4.0 0.00 0.00 0.00 65 1016.1
20260505235334 71 133 0.0 4.0 0.00 0.00 0.00 65 1016.0
20260505234904 71 230 0.0 6.0 0.00 0.00 0.00 64 1016.1
20260505234403 71 93 1.0 4.0 0.00 0.00 0.00 63 1015.9
20260505233914 71 215 1.0 3.0 0.00 0.00 0.00 62 1015.9
20260505233333 72 150 1.0 7.0 0.00 0.00 0.00 60 1015.8
20260505232906 72 58 2.0 7.0 0.00 0.00 0.00 60 1015.8
20260505232325 72 73 1.0 6.0 0.00 0.00 0.00 60 1015.8
20260505231847 72 82 1.0 6.0 0.00 0.00 0.00 60 1015.7
20260505231417 73 116 1.0 5.0 0.00 0.00 0.00 60 1015.8
20260505230835 73 251 1.0 4.0 0.00 0.00 0.00 59 1016.0
20260505225844 73 335 0.0 5.0 0.00 0.00 0.00 61 1016.1
20260505225417 73 252 0.0 3.0 0.00 0.00 0.00 60 1016.0
20260505224839 73 249 1.0 7.0 0.00 0.00 0.00 60 1015.9
20260505224359 73 208 2.0 7.0 0.00 0.00 0.00 59 1015.9
20260505223826 74 54 2.0 4.0 0.00 0.00 0.00 58 1015.9
20260505223351 74 259 0.0 2.0 0.00 0.00 0.00 59 1016.0
20260505222920 74 241 0.0 3.0 0.00 0.00 0.00 58 1016.0
20260505222422 74 239 1.0 7.0 0.00 0.00 0.00 58 1016.1
20260505221851 74 158 1.0 7.0 0.00 0.00 0.00 58 1016.1
20260505221413 74 258 2.0 4.0 0.00 0.00 0.00 57 1016.1
20260505220843 74 72 0.0 6.0 0.00 0.00 0.00 58 1016.1
20260505220405 74 130 2.0 6.0 0.00 0.00 0.00 58 1016.1
20260505215936 74 50 2.0 4.0 0.00 0.00 0.00 58 1016.2
20260505215334 74 302 1.0 3.0 0.00 0.00 0.00 59 1016.2
20260505214859 74 316 1.0 3.0 0.00 0.00 0.00 59 1016.2
20260505214325 74 141 0.0 3.0 0.00 0.00 0.00 58 1016.2
20260505213851 75 224 1.0 3.0 0.00 0.00 0.00 59 1016.3
20260505213340 75 280 1.0 3.0 0.00 0.00 0.00 59 1016.6
20260505212859 75 32 1.0 3.0 0.00 0.00 0.00 59 1016.5
20260505212401 75 278 0.0 4.0 0.00 0.00 0.00 59 1016.4
20260505211828 76 329 2.0 4.0 0.00 0.00 0.00 59 1016.3